| time (UTC) | temp F | wind direction | speed MPH | gust MPH | rain 1hr in | rain 24hr in | rain mn in | humidity % | barometer mb |
| 20260510151506 | 53 | 204 | 0.0 | 0.0 | 0.00 | 0.00 | 0.00 | 66 | 1017.0 |
| 20260510151006 | 52 | 205 | 0.0 | 1.0 | 0.00 | 0.00 | 0.00 | 68 | 1017.0 |
| 20260510150505 | 52 | 205 | 0.0 | 1.0 | 0.00 | 0.00 | 0.00 | 67 | 1017.0 |
| 20260510150005 | 53 | 212 | 0.0 | 0.0 | 0.00 | 0.00 | 0.00 | 67 | 1017.0 |
| 20260510145506 | 52 | 212 | 0.0 | 0.0 | 0.00 | 0.00 | 0.00 | 67 | 1016.9 |
| 20260510145004 | 52 | 216 | 0.0 | 3.0 | 0.00 | 0.00 | 0.00 | 68 | 1016.9 |
| 20260510144602 | 52 | 216 | 0.0 | 3.0 | 0.00 | 0.00 | 0.00 | 70 | 1016.9 |
| 20260510144100 | 51 | 216 | 0.0 | 0.0 | 0.00 | 0.00 | 0.00 | 73 | 1017.0 |
| 20260510143558 | 51 | 217 | 0.0 | 0.0 | 0.00 | 0.00 | 0.00 | 73 | 1017.0 |
| 20260510143058 | 50 | 218 | 0.0 | 2.0 | 0.00 | 0.00 | 0.00 | 77 | 1017.0 |
| 20260510142558 | 49 | 219 | 0.0 | 2.0 | 0.00 | 0.00 | 0.00 | 78 | 1016.9 |
| 20260510142057 | 48 | 225 | 0.0 | 0.0 | 0.00 | 0.00 | 0.00 | 79 | 1017.0 |
| 20260510141600 | 48 | 234 | 0.0 | 0.0 | 0.00 | 0.00 | 0.00 | 79 | 1017.0 |
| 20260510141052 | 48 | 236 | 0.0 | 0.0 | 0.00 | 0.00 | 0.00 | 80 | 1017.0 |
| 20260510140549 | 47 | 236 | 0.0 | 0.0 | 0.00 | 0.00 | 0.00 | 81 | 1016.9 |
| 20260510140052 | 47 | 237 | 0.0 | 0.0 | 0.00 | 0.00 | 0.00 | 83 | 1017.0 |
| 20260510135547 | 46 | 237 | 0.0 | 0.0 | 0.00 | 0.00 | 0.00 | 83 | 1016.8 |
| 20260510135046 | 46 | 237 | 0.0 | 0.0 | 0.00 | 0.00 | 0.00 | 83 | 1016.9 |
| 20260510134551 | 46 | 237 | 0.0 | 0.0 | 0.00 | 0.00 | 0.00 | 83 | 1017.0 |
| 20260510134045 | 46 | 237 | 0.0 | 0.0 | 0.00 | 0.00 | 0.00 | 83 | 1017.0 |
| 20260510133542 | 45 | 237 | 0.0 | 0.0 | 0.00 | 0.00 | 0.00 | 84 | 1017.0 |
| 20260510133054 | 45 | 237 | 0.0 | 0.0 | 0.00 | 0.00 | 0.00 | 84 | 1017.0 |
| 20260510132540 | 45 | 237 | 0.0 | 0.0 | 0.00 | 0.00 | 0.00 | 84 | 1016.9 |
| 20260510132038 | 45 | 237 | 0.0 | 0.0 | 0.00 | 0.00 | 0.00 | 84 | 1016.9 |
| 20260510131537 | 45 | 237 | 0.0 | 0.0 | 0.00 | 0.00 | 0.00 | 84 | 1016.9 |
| 20260510131037 | 45 | 237 | 0.0 | 0.0 | 0.00 | 0.00 | 0.00 | 84 | 1016.9 |
| 20260510130537 | 45 | 237 | 0.0 | 0.0 | 0.00 | 0.00 | 0.00 | 84 | 1017.0 |
| 20260510130036 | 45 | 237 | 0.0 | 0.0 | 0.00 | 0.00 | 0.00 | 85 | 1017.0 |
| 20260510125534 | 45 | 237 | 0.0 | 0.0 | 0.00 | 0.00 | 0.00 | 85 | 1016.8 |
| 20260510125034 | 45 | 237 | 0.0 | 0.0 | 0.00 | 0.00 | 0.00 | 85 | 1016.7 |
| 20260510124537 | 45 | 237 | 0.0 | 0.0 | 0.00 | 0.00 | 0.00 | 85 | 1016.8 |
| 20260510124033 | 45 | 237 | 0.0 | 0.0 | 0.00 | 0.00 | 0.00 | 85 | 1016.7 |
| 20260510123534 | 45 | 237 | 0.0 | 0.0 | 0.00 | 0.00 | 0.00 | 85 | 1016.6 |
| 20260510123037 | 45 | 237 | 0.0 | 0.0 | 0.00 | 0.00 | 0.00 | 85 | 1016.6 |
| 20260510122533 | 45 | 237 | 0.0 | 0.0 | 0.00 | 0.00 | 0.00 | 85 | 1016.5 |
| 20260510122031 | 45 | 237 | 0.0 | 0.0 | 0.00 | 0.00 | 0.00 | 85 | 1016.4 |
| 20260510121530 | 45 | 237 | 0.0 | 0.0 | 0.00 | 0.00 | 0.00 | 85 | 1016.4 |
| 20260510121029 | 45 | 237 | 0.0 | 0.0 | 0.00 | 0.00 | 0.00 | 85 | 1016.3 |
| 20260510120527 | 45 | 237 | 0.0 | 0.0 | 0.00 | 0.00 | 0.00 | 85 | 1016.3 |
| 20260510120030 | 45 | 237 | 0.0 | 0.0 | 0.00 | 0.00 | 0.00 | 85 | 1016.2 |
| 20260510115526 | 45 | 237 | 0.0 | 0.0 | 0.00 | 0.00 | 0.00 | 85 | 1016.1 |
| 20260510115027 | 45 | 237 | 0.0 | 0.0 | 0.00 | 0.00 | 0.00 | 85 | 1016.2 |
| 20260510114526 | 45 | 237 | 0.0 | 0.0 | 0.00 | 0.00 | 0.00 | 85 | 1016.2 |
| 20260510114030 | 45 | 237 | 0.0 | 0.0 | 0.00 | 0.00 | 0.00 | 85 | 1016.1 |
| 20260510113525 | 45 | 237 | 0.0 | 0.0 | 0.00 | 0.00 | 0.00 | 85 | 1016.1 |
| 20260510113025 | 45 | 237 | 0.0 | 0.0 | 0.00 | 0.00 | 0.00 | 85 | 1016.0 |
| 20260510112525 | 45 | 240 | 0.0 | 0.0 | 0.00 | 0.00 | 0.00 | 85 | 1016.1 |
| 20260510112027 | 45 | 252 | 0.0 | 0.0 | 0.00 | 0.00 | 0.00 | 85 | 1016.2 |
| 20260510111524 | 45 | 252 | 0.0 | 0.0 | 0.00 | 0.00 | 0.00 | 85 | 1016.1 |
| 20260510111023 | 45 | 252 | 0.0 | 0.0 | 0.00 | 0.00 | 0.00 | 85 | 1016.0 |
| 20260510110523 | 45 | 252 | 0.0 | 0.0 | 0.00 | 0.00 | 0.00 | 85 | 1016.0 |
| 20260510110023 | 45 | 255 | 0.0 | 0.0 | 0.00 | 0.00 | 0.00 | 85 | 1015.9 |
| 20260510105523 | 45 | 256 | 0.0 | 0.0 | 0.00 | 0.00 | 0.00 | 85 | 1015.8 |
| 20260510105025 | 45 | 256 | 0.0 | 0.0 | 0.00 | 0.00 | 0.00 | 85 | 1015.9 |
| 20260510104523 | 45 | 256 | 0.0 | 0.0 | 0.00 | 0.00 | 0.00 | 85 | 1015.9 |
| 20260510104021 | 45 | 256 | 0.0 | 0.0 | 0.00 | 0.00 | 0.00 | 85 | 1015.9 |
| 20260510103521 | 45 | 256 | 0.0 | 0.0 | 0.00 | 0.00 | 0.00 | 85 | 1015.8 |
| 20260510103020 | 45 | 256 | 0.0 | 0.0 | 0.00 | 0.00 | 0.00 | 85 | 1015.7 |
| 20260510102519 | 45 | 256 | 0.0 | 0.0 | 0.00 | 0.00 | 0.00 | 84 | 1015.7 |
| 20260510102019 | 45 | 256 | 0.0 | 0.0 | 0.00 | 0.00 | 0.00 | 84 | 1015.6 |
| 20260510101517 | 45 | 256 | 0.0 | 0.0 | 0.00 | 0.00 | 0.00 | 84 | 1015.5 |
| 20260510101016 | 45 | 256 | 0.0 | 0.0 | 0.00 | 0.00 | 0.00 | 84 | 1015.4 |
| 20260510100519 | 45 | 256 | 0.0 | 0.0 | 0.00 | 0.00 | 0.00 | 84 | 1015.4 |
| 20260510100016 | 45 | 256 | 0.0 | 0.0 | 0.00 | 0.00 | 0.00 | 83 | 1015.3 |
| 20260510095516 | 45 | 256 | 0.0 | 0.0 | 0.00 | 0.00 | 0.00 | 83 | 1015.4 |
| 20260510095018 | 45 | 256 | 0.0 | 0.0 | 0.00 | 0.00 | 0.00 | 83 | 1015.3 |
| 20260510094514 | 45 | 256 | 0.0 | 0.0 | 0.00 | 0.00 | 0.00 | 82 | 1015.4 |
| 20260510094014 | 45 | 256 | 0.0 | 0.0 | 0.00 | 0.00 | 0.00 | 83 | 1015.3 |
| 20260510093513 | 45 | 256 | 0.0 | 0.0 | 0.00 | 0.00 | 0.00 | 83 | 1015.2 |
| 20260510093013 | 45 | 256 | 0.0 | 0.0 | 0.00 | 0.00 | 0.00 | 82 | 1015.2 |
| 20260510092514 | 45 | 256 | 0.0 | 0.0 | 0.00 | 0.00 | 0.00 | 82 | 1015.1 |
| 20260510092012 | 45 | 256 | 0.0 | 0.0 | 0.00 | 0.00 | 0.00 | 83 | 1015.1 |
| 20260510091513 | 45 | 256 | 0.0 | 0.0 | 0.00 | 0.00 | 0.00 | 82 | 1015.1 |
| 20260510091011 | 45 | 256 | 0.0 | 0.0 | 0.00 | 0.00 | 0.00 | 82 | 1015.0 |
| 20260510090517 | 45 | 256 | 0.0 | 0.0 | 0.00 | 0.00 | 0.00 | 81 | 1014.9 |
| 20260510090010 | 45 | 265 | 0.0 | 0.0 | 0.00 | 0.00 | 0.00 | 81 | 1014.9 |
| 20260510085509 | 45 | 266 | 0.0 | 0.0 | 0.00 | 0.00 | 0.00 | 81 | 1014.9 |
| 20260510085010 | 45 | 272 | 0.0 | 0.0 | 0.00 | 0.00 | 0.00 | 80 | 1014.9 |
| 20260510084509 | 45 | 272 | 0.0 | 0.0 | 0.00 | 0.00 | 0.00 | 80 | 1015.0 |
| 20260510084011 | 45 | 272 | 0.0 | 0.0 | 0.00 | 0.00 | 0.00 | 79 | 1015.0 |
| 20260510083508 | 45 | 272 | 0.0 | 0.0 | 0.00 | 0.00 | 0.00 | 79 | 1015.0 |
| 20260510083007 | 45 | 272 | 0.0 | 0.0 | 0.00 | 0.00 | 0.00 | 79 | 1015.0 |
| 20260510082510 | 45 | 272 | 0.0 | 0.0 | 0.00 | 0.00 | 0.00 | 79 | 1014.9 |
| 20260510082007 | 45 | 272 | 0.0 | 0.0 | 0.00 | 0.00 | 0.00 | 79 | 1014.9 |
| 20260510081510 | 45 | 272 | 0.0 | 0.0 | 0.00 | 0.00 | 0.00 | 79 | 1014.9 |
| 20260510081005 | 45 | 272 | 0.0 | 0.0 | 0.00 | 0.00 | 0.00 | 79 | 1014.8 |
| 20260510080506 | 45 | 272 | 0.0 | 0.0 | 0.00 | 0.00 | 0.00 | 79 | 1014.8 |
| 20260510080005 | 45 | 272 | 0.0 | 0.0 | 0.00 | 0.00 | 0.00 | 79 | 1014.8 |
| 20260510075505 | 45 | 272 | 0.0 | 0.0 | 0.00 | 0.00 | 0.00 | 79 | 1014.7 |
| 20260510075004 | 45 | 272 | 0.0 | 0.0 | 0.00 | 0.00 | 0.00 | 79 | 1014.7 |
| 20260510074504 | 45 | 272 | 0.0 | 0.0 | 0.00 | 0.00 | 0.00 | 79 | 1014.7 |
| 20260510074008 | 45 | 272 | 0.0 | 0.0 | 0.00 | 0.00 | 0.00 | 79 | 1014.6 |
| 20260510073504 | 45 | 272 | 0.0 | 0.0 | 0.00 | 0.00 | 0.00 | 79 | 1014.7 |
| 20260510073006 | 45 | 272 | 0.0 | 0.0 | 0.00 | 0.00 | 0.00 | 79 | 1014.7 |
| 20260510072503 | 45 | 272 | 0.0 | 0.0 | 0.00 | 0.00 | 0.00 | 79 | 1014.8 |
| 20260510072004 | 45 | 272 | 0.0 | 0.0 | 0.00 | 0.00 | 0.00 | 79 | 1014.9 |
| 20260510071502 | 45 | 272 | 0.0 | 0.0 | 0.00 | 0.00 | 0.00 | 79 | 1014.9 |
| 20260510071002 | 45 | 272 | 0.0 | 0.0 | 0.00 | 0.00 | 0.00 | 79 | 1015.0 |
| 20260510070503 | 45 | 272 | 0.0 | 0.0 | 0.00 | 0.00 | 0.00 | 79 | 1015.1 |
| 20260510070004 | 45 | 272 | 0.0 | 1.0 | 0.00 | 0.00 | 0.00 | 79 | 1015.1 |
| 20260510065501 | 46 | 272 | 0.0 | 1.0 | 0.00 | 0.00 | 0.00 | 79 | 1015.0 |
| 20260510065101 | 46 | 272 | 0.0 | 2.0 | 0.00 | 0.00 | 0.00 | 78 | 1015.0 |
| 20260510064603 | 46 | 272 | 0.0 | 2.0 | 0.00 | 0.00 | 0.00 | 78 | 1014.9 |
| 20260510064101 | 46 | 276 | 0.0 | 0.0 | 0.00 | 0.00 | 0.00 | 78 | 1014.8 |
| 20260510063558 | 46 | 282 | 0.0 | 0.0 | 0.00 | 0.00 | 0.00 | 77 | 1014.9 |
| 20260510063102 | 46 | 282 | 0.0 | 0.0 | 0.00 | 0.00 | 0.00 | 77 | 1014.9 |
| 20260510062600 | 46 | 282 | 0.0 | 1.0 | 0.00 | 0.00 | 0.00 | 77 | 1014.9 |
| 20260510062056 | 46 | 282 | 0.0 | 1.0 | 0.00 | 0.00 | 0.00 | 78 | 1014.9 |
| 20260510061557 | 46 | 274 | 0.0 | 0.0 | 0.00 | 0.00 | 0.00 | 79 | 1014.8 |
| 20260510061057 | 46 | 274 | 0.0 | 0.0 | 0.00 | 0.00 | 0.00 | 78 | 1014.7 |
| 20260510060554 | 46 | 274 | 0.0 | 7.0 | 0.00 | 0.00 | 0.00 | 78 | 1014.6 |
| 20260510060054 | 46 | 274 | 1.0 | 7.0 | 0.00 | 0.00 | 0.00 | 78 | 1014.5 |
| 20260510055552 | 46 | 270 | 0.0 | 7.0 | 0.00 | 0.00 | 0.00 | 78 | 1014.5 |
| 20260510055052 | 47 | 267 | 0.0 | 4.0 | 0.00 | 0.00 | 0.00 | 78 | 1014.4 |
| 20260510054552 | 47 | 256 | 0.0 | 7.0 | 0.00 | 0.00 | 0.00 | 78 | 1014.4 |
| 20260510054052 | 47 | 271 | 0.0 | 7.0 | 0.00 | 0.00 | 0.00 | 78 | 1014.4 |
| 20260510053550 | 47 | 270 | 0.0 | 8.0 | 0.00 | 0.00 | 0.00 | 78 | 1014.4 |
| 20260510053050 | 47 | 267 | 0.0 | 8.0 | 0.00 | 0.00 | 0.00 | 77 | 1014.3 |
| 20260510052550 | 47 | 277 | 0.0 | 10.0 | 0.00 | 0.00 | 0.00 | 77 | 1014.4 |
| 20260510052049 | 47 | 281 | 0.0 | 10.0 | 0.00 | 0.00 | 0.00 | 77 | 1014.0 |
| 20260510051550 | 47 | 276 | 0.0 | 7.0 | 0.00 | 0.00 | 0.00 | 78 | 1014.2 |
| 20260510051048 | 47 | 278 | 0.0 | 7.0 | 0.00 | 0.00 | 0.00 | 77 | 1014.3 |
| 20260510050548 | 48 | 272 | 0.0 | 10.0 | 0.00 | 0.00 | 0.00 | 77 | 1014.3 |
| 20260510050048 | 48 | 265 | 1.0 | 10.0 | 0.00 | 0.00 | 0.00 | 76 | 1014.2 |
| 20260510045548 | 48 | 273 | 0.0 | 7.0 | 0.00 | 0.00 | 0.00 | 76 | 1014.2 |
| 20260510045052 | 48 | 271 | 0.0 | 7.0 | 0.00 | 0.00 | 0.00 | 76 | 1014.1 |
| 20260510044551 | 48 | 269 | 0.0 | 6.0 | 0.00 | 0.00 | 0.00 | 76 | 1014.0 |
| 20260510044051 | 48 | 276 | 0.0 | 4.0 | 0.00 | 0.00 | 0.00 | 76 | 1014.0 |
| 20260510043547 | 48 | 264 | 0.0 | 2.0 | 0.00 | 0.00 | 0.00 | 76 | 1014.2 |
| 20260510043057 | 48 | 281 | 0.0 | 8.0 | 0.00 | 0.00 | 0.00 | 75 | 1014.2 |
| 20260510042548 | 48 | 269 | 0.0 | 6.0 | 0.00 | 0.00 | 0.00 | 75 | 1014.1 |
| 20260510042046 | 48 | 197 | 0.0 | 7.0 | 0.00 | 0.00 | 0.00 | 74 | 1013.9 |
| 20260510041549 | 49 | 280 | 0.0 | 7.0 | 0.00 | 0.00 | 0.00 | 74 | 1013.7 |
| 20260510041046 | 49 | 274 | 0.0 | 7.0 | 0.00 | 0.00 | 0.00 | 74 | 1014.0 |
| 20260510040546 | 49 | 268 | 0.0 | 9.0 | 0.00 | 0.00 | 0.00 | 74 | 1014.5 |
| 20260510040050 | 49 | 274 | 0.0 | 10.0 | 0.00 | 0.00 | 0.00 | 74 | 1014.7 |
| 20260510035545 | 49 | 281 | 1.0 | 10.0 | 0.00 | 0.00 | 0.00 | 74 | 1014.5 |
| 20260510035046 | 49 | 253 | 0.0 | 12.0 | 0.00 | 0.00 | 0.00 | 74 | 1014.4 |
| 20260510034543 | 49 | 265 | 1.0 | 12.0 | 0.00 | 0.00 | 0.00 | 74 | 1014.2 |
| 20260510034043 | 49 | 279 | 1.0 | 8.0 | 0.00 | 0.00 | 0.00 | 74 | 1014.3 |
| 20260510033544 | 49 | 300 | 0.0 | 8.0 | 0.00 | 0.00 | 0.00 | 74 | 1014.1 |
| 20260510033043 | 49 | 266 | 0.0 | 14.0 | 0.00 | 0.00 | 0.00 | 74 | 1014.0 |
| 20260510032541 | 49 | 297 | 2.0 | 14.0 | 0.00 | 0.00 | 0.00 | 73 | 1013.8 |
| 20260510032038 | 49 | 256 | 3.0 | 16.0 | 0.00 | 0.00 | 0.00 | 73 | 1013.5 |
| 20260510031542 | 50 | 291 | 4.0 | 16.0 | 0.00 | 0.00 | 0.00 | 72 | 1013.2 |
| 20260510031036 | 50 | 270 | 2.0 | 12.0 | 0.00 | 0.00 | 0.00 | 71 | 1012.9 |
| 20260510030534 | 50 | 227 | 1.0 | 14.0 | 0.00 | 0.00 | 0.00 | 71 | 1012.7 |
| 20260510030034 | 50 | 277 | 3.0 | 19.0 | 0.00 | 0.00 | 0.00 | 70 | 1012.3 |
| 20260510025532 | 50 | 210 | 1.0 | 19.0 | 0.00 | 0.00 | 0.00 | 69 | 1012.0 |
| 20260510025033 | 51 | 284 | 1.0 | 19.0 | 0.00 | 0.00 | 0.00 | 68 | 1011.7 |
| 20260510024530 | 51 | 300 | 2.0 | 19.0 | 0.00 | 0.00 | 0.00 | 67 | 1011.6 |
| 20260510024029 | 51 | 303 | 3.0 | 18.0 | 0.00 | 0.00 | 0.00 | 66 | 1011.3 |
| 20260510023528 | 52 | 274 | 1.0 | 18.0 | 0.00 | 0.00 | 0.00 | 65 | 1011.0 |
| 20260510023026 | 52 | 272 | 2.0 | 15.0 | 0.00 | 0.00 | 0.00 | 64 | 1010.6 |
| 20260510022525 | 53 | 274 | 1.0 | 15.0 | 0.00 | 0.00 | 0.00 | 63 | 1010.2 |
| 20260510022024 | 53 | 271 | 3.0 | 22.0 | 0.00 | 0.00 | 0.00 | 63 | 1009.8 |
| 20260510021532 | 54 | 277 | 7.0 | 22.0 | 0.00 | 0.00 | 0.00 | 61 | 1009.3 |
| 20260510021021 | 55 | 279 | 7.0 | 19.0 | 0.00 | 0.00 | 0.00 | 59 | 1009.0 |
| 20260510020520 | 55 | 266 | 3.0 | 20.0 | 0.00 | 0.00 | 0.00 | 55 | 1008.5 |
| 20260510020018 | 56 | 250 | 4.0 | 16.0 | 0.00 | 0.00 | 0.00 | 53 | 1007.9 |
| 20260510015519 | 58 | 274 | 4.0 | 24.0 | 0.00 | 0.00 | 0.00 | 50 | 1007.8 |
| 20260510015022 | 59 | 244 | 8.0 | 24.0 | 0.00 | 0.00 | 0.00 | 46 | 1008.0 |
| 20260510014517 | 61 | 278 | 7.0 | 26.0 | 0.00 | 0.00 | 0.00 | 42 | 1007.8 |
| 20260510014018 | 62 | 269 | 9.0 | 26.0 | 0.00 | 0.00 | 0.00 | 39 | 1007.5 |
| 20260510013516 | 64 | 279 | 4.0 | 24.0 | 0.00 | 0.00 | 0.00 | 38 | 1007.0 |
| 20260510013015 | 65 | 261 | 7.0 | 20.0 | 0.00 | 0.00 | 0.00 | 35 | 1006.4 |
| 20260510012515 | 65 | 177 | 0.0 | 1.0 | 0.00 | 0.00 | 0.00 | 34 | 1005.7 |
| 20260510012014 | 65 | 177 | 0.0 | 1.0 | 0.00 | 0.00 | 0.00 | 34 | 1005.4 |
| 20260510011514 | 66 | 176 | 0.0 | 2.0 | 0.00 | 0.00 | 0.00 | 34 | 1005.4 |
| 20260510011014 | 66 | 173 | 0.0 | 3.0 | 0.00 | 0.00 | 0.00 | 32 | 1005.2 |
| 20260510010514 | 67 | 176 | 0.0 | 3.0 | 0.00 | 0.00 | 0.00 | 33 | 1005.0 |
| 20260510010014 | 67 | 180 | 0.0 | 5.0 | 0.00 | 0.00 | 0.00 | 32 | 1005.0 |
| 20260510005514 | 67 | 54 | 0.0 | 5.0 | 0.00 | 0.00 | 0.00 | 30 | 1004.9 |
| 20260510005014 | 68 | 154 | 0.0 | 1.0 | 0.00 | 0.00 | 0.00 | 29 | 1004.8 |
| 20260510004513 | 68 | 154 | 0.0 | 1.0 | 0.00 | 0.00 | 0.00 | 28 | 1004.7 |
| 20260510004014 | 68 | 154 | 0.0 | 0.0 | 0.00 | 0.00 | 0.00 | 27 | 1004.6 |
| 20260510003512 | 68 | 154 | 0.0 | 0.0 | 0.00 | 0.00 | 0.00 | 27 | 1004.5 |
| 20260510003012 | 68 | 154 | 0.0 | 2.0 | 0.00 | 0.00 | 0.00 | 27 | 1004.4 |
| 20260510002511 | 68 | 154 | 0.0 | 5.0 | 0.00 | 0.00 | 0.00 | 26 | 1004.4 |
| 20260510002011 | 68 | 154 | 0.0 | 9.0 | 0.00 | 0.00 | 0.00 | 27 | 1004.3 |
| 20260510001511 | 68 | 154 | 3.0 | 9.0 | 0.00 | 0.00 | 0.00 | 26 | 1004.4 |
| 20260510001013 | 68 | 184 | 0.0 | 6.0 | 0.00 | 0.00 | 0.00 | 26 | 1004.4 |
| 20260510000511 | 68 | 184 | 0.0 | 0.0 | 0.00 | 0.00 | 0.00 | 26 | 1004.5 |
| 20260510000016 | 68 | 184 | 0.0 | 1.0 | 0.00 | 0.00 | 0.00 | 25 | 1004.3 |
| 20260509235509 | 68 | 184 | 0.0 | 5.0 | 0.00 | 0.00 | 0.00 | 27 | 1004.3 |
| 20260509235011 | 69 | 184 | 0.0 | 5.0 | 0.00 | 0.00 | 0.00 | 26 | 1004.3 |
| 20260509234510 | 69 | 184 | 0.0 | 4.0 | 0.00 | 0.00 | 0.00 | 25 | 1004.2 |
| 20260509234010 | 68 | 185 | 0.0 | 0.0 | 0.00 | 0.00 | 0.00 | 27 | 1004.2 |
| 20260509233509 | 68 | 184 | 0.0 | 0.0 | 0.00 | 0.00 | 0.00 | 26 | 1004.3 |
| 20260509233009 | 68 | 185 | 0.0 | 0.0 | 0.00 | 0.00 | 0.00 | 25 | 1004.4 |
| 20260509232508 | 68 | 184 | 0.0 | 0.0 | 0.00 | 0.00 | 0.00 | 26 | 1004.4 |
| 20260509232008 | 68 | 184 | 0.0 | 0.0 | 0.00 | 0.00 | 0.00 | 26 | 1004.4 |
| 20260509231507 | 68 | 184 | 0.0 | 0.0 | 0.00 | 0.00 | 0.00 | 25 | 1004.3 |
| 20260509231007 | 68 | 185 | 0.0 | 0.0 | 0.00 | 0.00 | 0.00 | 26 | 1004.3 |
| 20260509230509 | 68 | 184 | 0.0 | 0.0 | 0.00 | 0.00 | 0.00 | 27 | 1004.3 |
| 20260509230008 | 68 | 185 | 0.0 | 0.0 | 0.00 | 0.00 | 0.00 | 27 | 1004.2 |
| 20260509225508 | 68 | 185 | 0.0 | 0.0 | 0.00 | 0.00 | 0.00 | 26 | 1004.2 |
| 20260509225007 | 68 | 184 | 0.0 | 0.0 | 0.00 | 0.00 | 0.00 | 27 | 1004.2 |
| 20260509224507 | 68 | 184 | 0.0 | 0.0 | 0.00 | 0.00 | 0.00 | 27 | 1004.2 |
| 20260509224007 | 68 | 184 | 0.0 | 0.0 | 0.00 | 0.00 | 0.00 | 28 | 1004.1 |
| 20260509223507 | 68 | 185 | 0.0 | 0.0 | 0.00 | 0.00 | 0.00 | 27 | 1004.2 |
| 20260509223005 | 68 | 185 | 0.0 | 0.0 | 0.00 | 0.00 | 0.00 | 24 | 1004.2 |
| 20260509222506 | 69 | 184 | 0.0 | 1.0 | 0.00 | 0.00 | 0.00 | 25 | 1004.1 |
| 20260509222006 | 69 | 184 | 0.0 | 4.0 | 0.00 | 0.00 | 0.00 | 25 | 1004.1 |
| 20260509221505 | 69 | 185 | 1.0 | 4.0 | 0.00 | 0.00 | 0.00 | 24 | 1004.1 |
| 20260509221007 | 69 | 186 | 2.0 | 4.0 | 0.00 | 0.00 | 0.00 | 26 | 1004.2 |
| 20260509220504 | 70 | 188 | 0.0 | 3.0 | 0.00 | 0.00 | 0.00 | 25 | 1004.2 |
| 20260509220004 | 70 | 189 | 0.0 | 0.0 | 0.00 | 0.00 | 0.00 | 24 | 1004.3 |
| 20260509215504 | 70 | 189 | 0.0 | 1.0 | 0.00 | 0.00 | 0.00 | 24 | 1004.2 |
| 20260509215003 | 70 | 189 | 0.0 | 2.0 | 0.00 | 0.00 | 0.00 | 23 | 1004.1 |
| 20260509214505 | 71 | 205 | 0.0 | 2.0 | 0.00 | 0.00 | 0.00 | 23 | 1004.1 |
| 20260509214006 | 71 | 217 | 0.0 | 1.0 | 0.00 | 0.00 | 0.00 | 24 | 1004.3 |
| 20260509213503 | 72 | 237 | 0.0 | 1.0 | 0.00 | 0.00 | 0.00 | 23 | 1004.4 |
| 20260509213002 | 72 | 235 | 0.0 | 1.0 | 0.00 | 0.00 | 0.00 | 24 | 1004.4 |
| 20260509212501 | 72 | 226 | 0.0 | 1.0 | 0.00 | 0.00 | 0.00 | 24 | 1004.4 |
| 20260509212001 | 72 | 227 | 0.0 | 1.0 | 0.00 | 0.00 | 0.00 | 22 | 1004.5 |
| 20260509211602 | 72 | 129 | 0.0 | 2.0 | 0.00 | 0.00 | 0.00 | 23 | 1004.6 |
| 20260509211104 | 72 | 129 | 0.0 | 2.0 | 0.00 | 0.00 | 0.00 | 24 | 1004.7 |
| 20260509210600 | 72 | 129 | 0.0 | 2.0 | 0.00 | 0.00 | 0.00 | 22 | 1004.7 |
| 20260509210116 | 72 | 129 | 0.0 | 2.0 | 0.00 | 0.00 | 0.00 | 23 | 1004.6 |
| 20260509205558 | 72 | 129 | 0.0 | 6.0 | 0.00 | 0.00 | 0.00 | 23 | 1004.6 |
| 20260509205058 | 73 | 129 | 2.0 | 6.0 | 0.00 | 0.00 | 0.00 | 21 | 1004.7 |
| 20260509204600 | 75 | 10 | 0.0 | 3.0 | 0.00 | 0.00 | 0.00 | 23 | 1004.7 |
| 20260509204059 | 75 | 141 | 0.0 | 6.0 | 0.00 | 0.00 | 0.00 | 23 | 1004.7 |
| 20260509203559 | 76 | 141 | 0.0 | 6.0 | 0.00 | 0.00 | 0.00 | 21 | 1004.7 |
| 20260509203057 | 76 | 220 | 0.0 | 5.0 | 0.00 | 0.00 | 0.00 | 22 | 1004.8 |
| 20260509202556 | 76 | 291 | 0.0 | 5.0 | 0.00 | 0.00 | 0.00 | 22 | 1004.8 |
| 20260509202056 | 76 | 293 | 0.0 | 5.0 | 0.00 | 0.00 | 0.00 | 20 | 1005.0 |
| 20260509201601 | 76 | 300 | 0.0 | 4.0 | 0.00 | 0.00 | 0.00 | 20 | 1005.0 |
| 20260509201056 | 76 | 181 | 0.0 | 3.0 | 0.00 | 0.00 | 0.00 | 22 | 1005.1 |
| 20260509200554 | 77 | 269 | 0.0 | 1.0 | 0.00 | 0.00 | 0.00 | 20 | 1005.1 |
| 20260509195554 | 76 | 220 | 0.0 | 3.0 | 0.00 | 0.00 | 0.00 | 22 | 1005.2 |
| 20260509195053 | 76 | 52 | 0.0 | 5.0 | 0.00 | 0.00 | 0.00 | 20 | 1005.2 |
| 20260509194558 | 76 | 124 | 0.0 | 9.0 | 0.00 | 0.00 | 0.00 | 22 | 1005.2 |
| 20260509194054 | 76 | 261 | 0.0 | 9.0 | 0.00 | 0.00 | 0.00 | 19 | 1005.2 |
| 20260509193554 | 77 | 265 | 0.0 | 10.0 | 0.00 | 0.00 | 0.00 | 21 | 1005.4 |
| 20260509193052 | 76 | 263 | 2.0 | 10.0 | 0.00 | 0.00 | 0.00 | 19 | 1005.4 |
| 20260509192553 | 76 | 279 | 1.0 | 7.0 | 0.00 | 0.00 | 0.00 | 21 | 1005.4 |
| 20260509192050 | 75 | 215 | 0.0 | 5.0 | 0.00 | 0.00 | 0.00 | 21 | 1005.4 |
| 20260509191550 | 74 | 265 | 0.0 | 5.0 | 0.00 | 0.00 | 0.00 | 22 | 1005.4 |
| 20260509191052 | 74 | 259 | 0.0 | 17.0 | 0.00 | 0.00 | 0.00 | 24 | 1005.4 |
| 20260509190550 | 74 | 143 | 1.0 | 9.0 | 0.00 | 0.00 | 0.00 | 22 | 1005.1 |
| 20260509190103 | 74 | 153 | 2.0 | 10.0 | 0.00 | 0.00 | 0.00 | 23 | 1005.4 |
| 20260509185549 | 74 | 273 | 0.0 | 10.0 | 0.00 | 0.00 | 0.00 | 22 | 1005.5 |
| 20260509185048 | 75 | 141 | 1.0 | 8.0 | 0.00 | 0.00 | 0.00 | 21 | 1005.5 |
| 20260509184547 | 75 | 124 | 0.0 | 4.0 | 0.00 | 0.00 | 0.00 | 24 | 1005.6 |
| 20260509184046 | 75 | 46 | 0.0 | 11.0 | 0.00 | 0.00 | 0.00 | 24 | 1005.7 |
| 20260509183546 | 76 | 137 | 3.0 | 11.0 | 0.00 | 0.00 | 0.00 | 23 | 1005.9 |
| 20260509183046 | 76 | 267 | 0.0 | 8.0 | 0.00 | 0.00 | 0.00 | 24 | 1005.8 |
| 20260509182546 | 76 | 276 | 0.0 | 11.0 | 0.00 | 0.00 | 0.00 | 21 | 1006.0 |
| 20260509182045 | 76 | 275 | 0.0 | 11.0 | 0.00 | 0.00 | 0.00 | 24 | 1006.0 |
| 20260509181546 | 76 | 279 | 0.0 | 8.0 | 0.00 | 0.00 | 0.00 | 19 | 1006.0 |
| 20260509181043 | 75 | 268 | 0.0 | 10.0 | 0.00 | 0.00 | 0.00 | 21 | 1006.0 |
| 20260509180543 | 74 | 268 | 0.0 | 10.0 | 0.00 | 0.00 | 0.00 | 19 | 1006.1 |
| 20260509180047 | 74 | 269 | 0.0 | 1.0 | 0.00 | 0.00 | 0.00 | 18 | 1006.1 |
| 20260509175541 | 75 | 269 | 0.0 | 10.0 | 0.00 | 0.00 | 0.00 | 18 | 1006.1 |
| 20260509175040 | 75 | 269 | 2.0 | 10.0 | 0.00 | 0.00 | 0.00 | 17 | 1006.2 |
| 20260509174539 | 75 | 275 | 0.0 | 9.0 | 0.00 | 0.00 | 0.00 | 20 | 1006.3 |
| 20260509174039 | 74 | 275 | 1.0 | 9.0 | 0.00 | 0.00 | 0.00 | 20 | 1006.3 |
| 20260509173537 | 74 | 272 | 2.0 | 9.0 | 0.00 | 0.00 | 0.00 | 20 | 1006.3 |
| 20260509173038 | 74 | 269 | 2.0 | 9.0 | 0.00 | 0.00 | 0.00 | 18 | 1006.4 |
| 20260509172539 | 74 | 53 | 0.0 | 3.0 | 0.00 | 0.00 | 0.00 | 20 | 1006.4 |
| 20260509172036 | 74 | 272 | 0.0 | 5.0 | 0.00 | 0.00 | 0.00 | 20 | 1006.4 |
| 20260509171539 | 74 | 269 | 0.0 | 8.0 | 0.00 | 0.00 | 0.00 | 21 | 1006.5 |
| 20260509171033 | 74 | 267 | 0.0 | 8.0 | 0.00 | 0.00 | 0.00 | 19 | 1006.4 |
| 20260509170534 | 73 | 261 | 0.0 | 9.0 | 0.00 | 0.00 | 0.00 | 19 | 1006.3 |
| 20260509170032 | 73 | 271 | 0.0 | 9.0 | 0.00 | 0.00 | 0.00 | 20 | 1006.4 |
| 20260509165529 | 73 | 269 | 0.0 | 5.0 | 0.00 | 0.00 | 0.00 | 18 | 1006.5 |
| 20260509165030 | 73 | 269 | 0.0 | 5.0 | 0.00 | 0.00 | 0.00 | 21 | 1006.5 |
| 20260509164527 | 72 | 270 | 0.0 | 5.0 | 0.00 | 0.00 | 0.00 | 22 | 1006.5 |
| 20260509164028 | 71 | 270 | 0.0 | 1.0 | 0.00 | 0.00 | 0.00 | 20 | 1006.6 |
| 20260509163527 | 71 | 270 | 0.0 | 7.0 | 0.00 | 0.00 | 0.00 | 20 | 1006.6 |
| 20260509163026 | 71 | 274 | 1.0 | 7.0 | 0.00 | 0.00 | 0.00 | 21 | 1006.6 |
| 20260509162522 | 71 | 276 | 0.0 | 8.0 | 0.00 | 0.00 | 0.00 | 22 | 1006.6 |
| 20260509162021 | 71 | 273 | 0.0 | 8.0 | 0.00 | 0.00 | 0.00 | 22 | 1006.7 |
| 20260509161520 | 71 | 278 | 0.0 | 7.0 | 0.00 | 0.00 | 0.00 | 21 | 1006.6 |
| 20260509161018 | 71 | 272 | 0.0 | 9.0 | 0.00 | 0.00 | 0.00 | 25 | 1006.5 |
| 20260509160516 | 70 | 272 | 0.0 | 7.0 | 0.00 | 0.00 | 0.00 | 23 | 1006.6 |
| 20260509160016 | 70 | 272 | 0.0 | 10.0 | 0.00 | 0.00 | 0.00 | 24 | 1006.7 |
| 20260509155514 | 69 | 272 | 0.0 | 11.0 | 0.00 | 0.00 | 0.00 | 25 | 1006.7 |
| 20260509155014 | 69 | 260 | 3.0 | 11.0 | 0.00 | 0.00 | 0.00 | 25 | 1006.7 |
| 20260509154517 | 69 | 268 | 0.0 | 14.0 | 0.00 | 0.00 | 0.00 | 23 | 1006.7 |
| 20260509154012 | 69 | 277 | 2.0 | 13.0 | 0.00 | 0.00 | 0.00 | 24 | 1006.7 |
| 20260509153511 | 68 | 266 | 0.0 | 11.0 | 0.00 | 0.00 | 0.00 | 25 | 1006.8 |
| 20260509153009 | 68 | 271 | 1.0 | 14.0 | 0.00 | 0.00 | 0.00 | 25 | 1006.8 |
| 20260509152508 | 67 | 270 | 6.0 | 14.0 | 0.00 | 0.00 | 0.00 | 26 | 1006.8 |
| 20260509152009 | 66 | 265 | 2.0 | 12.0 | 0.00 | 0.00 | 0.00 | 27 | 1006.8 |